Overview Statistics Trail Chart Weather Telemetry Raw packets
 

This is the latest recevied weather packets stored in our database for station/object KK7MLS-13. If no packets are shown the sender has not sent any weather packets the latest 10 day(s).

<< 43 44 45 46 47 48 49 >>
Time Temp. Humidity Pressure Rain* Wind** Luminosity Snow
1788386517 15° C 90% 1006.8 hPa 0 mm - 48 W/m² -
1788386212 15° C 90% 1007 hPa 0 mm - 46 W/m² -
1788385908 15° C 91% 1007 hPa 0 mm - 62 W/m² -
1788385602 14.44° C 90% 1006.9 hPa 0 mm - 73 W/m² -
1788385302 14.44° C 91% 1006.9 hPa 0 mm - 55 W/m² -
1788384997 14.44° C 91% 1006.9 hPa 0 mm - 42 W/m² -
1788384697 14.44° C 91% 1006.8 hPa 0 mm - 62 W/m² -
1788384392 14.44° C 91% 1007.2 hPa 0 mm - 38 W/m² -
1788384088 14.44° C 91% 1007 hPa 0 mm - 44 W/m² -
1788383784 14.44° C 92% 1007.1 hPa 0 mm - 71 W/m² -
1788383479 14.44° C 92% 1007.1 hPa 0 mm - 55 W/m² -
1788383179 14.44° C 93% 1007.1 hPa 0 mm - 47 W/m² -
1788382874 14.44° C 93% 1006.9 hPa 0 mm - 58 W/m² -
1788382572 14.44° C 93% 1006.8 hPa 0 mm - 47 W/m² -
1788382269 14.44° C 93% 1006.9 hPa 0 mm - 59 W/m² -
1788381968 14.44° C 92% 1006.7 hPa 0 mm - 62 W/m² -
1788381662 14.44° C 92% 1006.7 hPa 1.78 mm - 63 W/m² -
1788381358 14.44° C 93% 1006.8 hPa 1.78 mm - 57 W/m² -
1788381057 14.44° C 94% 1006.8 hPa 0 mm - 67 W/m² -
1788380753 14.44° C 94% 1006.5 hPa 0 mm - 80 W/m² -
1788380450 14.44° C 94% 1006.6 hPa 0 mm - 82 W/m² -
1788380146 14.44° C 94% 1006.3 hPa 0 mm - 74 W/m² -
1788379844 14.44° C 94% 1006.6 hPa 0 mm - 69 W/m² -
1788379540 14.44° C 94% 1006.7 hPa 0 mm - 68 W/m² -
1788379236 14.44° C 94% 1006.4 hPa 1.27 mm - 52 W/m² -

* Rain latest hour (hover to see other rain measurements)
** Current wind speed in m/s (hover to see current wind gust speed)